Location: Bout de Bas
(50.3332°N, 1.9389°E)
Time: 01:08:39
(UTC+00:00)

Daily predictions for brighter satellites

Satellite Brightness Start Highest point End
(mag) Time Altitude Azimuth Time Altitude Azimuth Time Altitude Azimuth
ACS3 Solar Sail 4.1 03:40:08 10° N 03:40:27 12° N 03:40:27 12° N
SL-16 R/B 4.0 03:46:48 25° NNE 03:47:22 25° NE 03:52:01 10° E
Cosmos 2082 Rocket 3.9 03:49:32 24° SE 03:51:27 29° ESE 03:56:15 10° NE
COSMOS 2455 3.5 03:58:09 53° E 03:58:09 53° E 04:03:10 10° SE
ATLAS 3B R/B 4.1 03:59:03 30° N 03:59:29 30° N 04:06:16 10° ENE
NOSS 3-4 (A) 4.4 04:02:31 35° NNE 04:02:31 35° NNE 04:06:08 10° NE
NOSS 3-4 (C) 4.4 04:02:40 36° NNE 04:02:40 36° NNE 04:06:18 10° NE
Cosmos 1980 Rocket 3.6 04:14:14 28° SSE 04:14:14 28° SSE 04:16:44 10° SSE
Cosmos 2369 4.0 04:16:15 64° E 04:16:15 64° E 04:21:16 10° SE
Aureole 1 Rocket 4.2 04:20:45 59° NNW 04:22:17 84° ENE 04:29:47 10° SSE
COSMO-SKYMED 1 4.3 04:18:50 10° ESE 04:22:21 28° ENE 04:22:49 27° NE
ADEOS Rocket 4.4 04:16:00 10° N 04:20:30 34° NNW 04:20:30 34° NNW
Cosmos 2180 Rocket 4.5 04:23:52 50° N 04:25:39 82° E 04:31:59 10° SSE
Cosmos 1937 Rocket 4.1 04:25:55 48° NE 04:26:27 50° ENE 04:31:25 10° SE
Cosmos 909 Rocket 4.4 04:28:18 57° NNW 04:28:18 57° NNW 04:34:25 10° NE
Cosmos 372 Rocket 4.3 04:33:37 55° SSE 04:33:37 55° SSE 04:37:34 10° SSE
Cosmos 2333 Rocket 3.4 04:33:56 25° N 04:36:32 38° NE 04:41:53 10° ESE
NOSS 3-1 (A) 4.4 04:37:46 36° NNW 04:40:32 55° NE 04:48:46 10° ESE
Cosmos 1606 Rocket 4.0 04:43:12 62° ESE 04:43:12 62° ESE 04:47:10 10° SSE
Cosmos 2360 Rocket 3.7 04:40:11 19° N 04:43:12 31° NE 04:48:10 10° ESE
Cosmos 2142 Rocket 4.3 04:47:06 58° NW 04:48:07 68° W 04:54:16 10° S
Cosmos 540 Rocket 4.3 04:56:48 35° N 04:56:48 35° N 05:00:04 10° NNE
USA 234 3.7 04:49:41 10° ENE 04:55:59 50° N 04:57:47 40° NW
Helios 1A Rocket 3.7 04:53:14 10° SE 04:55:47 40° ESE 04:55:47 40° ESE
SeaSat 1 4.0 04:56:12 10° NNE 04:58:20 22° N 04:58:20 22° N
Cosmos 2219 Rocket 3.9 04:58:08 14° N 05:02:00 28° NE 05:06:48 10° ESE
SL-4 R/B 2.8 05:03:15 36° ENE 05:03:15 36° ENE 05:05:19 10° E
ATLAS 5 CENTAUR R/B 3.5 05:05:56 13° NNE 05:05:56 13° NNE 05:06:33 10° NNE
Cosmos 2322 Rocket 3.1 05:01:43 20° NNW 05:05:25 45° NE 05:10:51 10° SE
Cosmos 1726 Rocket 3.4 05:08:06 50° N 05:09:15 88° E 05:13:30 10° S
Meteor 2-3 Rocket 4.1 05:05:41 10° S 05:11:22 67° E 05:17:01 10° NNE
CZ-4 R/B 3.7 05:10:20 10° NNE 05:15:01 82° ESE 05:19:38 10° SSW
Nadezhda 4 Rocket 3.9 05:10:05 10° SSW 05:16:24 77° W 05:22:42 10° N
NOSS 2-1 (D) 4.1 05:17:47 38° SSW 05:17:47 38° SSW 05:21:26 10° SSE
Cosmos 2237 4.2 05:15:45 42° NW 05:17:30 62° WSW 05:23:06 10° SSE
Cosmos 1428 Rocket 4.4 05:11:15 10° S 05:17:30 88° WNW 05:23:50 10° N
CZ-2C R/B 4.1 05:14:27 10° N 05:16:11 19° NNW 05:16:11 19° NNW
USA 59 Rocket 0.8 05:20:26 34° SSW 05:20:26 34° SSW 05:24:05 10° SSE
Cosmos 841 Rocket 3.4 05:18:03 10° SSW 05:23:18 86° WNW 05:28:36 10° NNE
COSMOS 2406 3.3 05:18:09 10° SSW 05:23:49 77° ESE 05:29:30 10° NNE
NOSS 2-1 (E) 3.7 05:25:12 43° SW 05:25:12 43° SW 05:29:19 10° SSE
NOSS 3-1 (C) 4.0 05:21:26 32° WNW 05:25:06 64° SW 05:33:45 10° SSE
Cosmos 1833 Rocket 4.0 05:28:01 22° NNW 05:28:01 22° NNW 05:31:39 10° NNE
Cosmos 1892 Rocket 3.5 05:25:56 10° S 05:30:18 86° E 05:34:44 10° N
Cosmos 2195 Rocket 4.4 05:24:33 10° S 05:30:50 87° WNW 05:37:12 10° N
SL-16 R/B 2.1 05:28:40 25° NNW 05:32:07 81° WSW 05:37:47 10° SSE
Cosmos 2082 Rocket 2.2 05:31:29 20° SW 05:35:14 55° NW 05:40:46 10° NNE
IRS-1D 3.5 05:37:16 10° N 05:42:08 54° WNW 05:47:03 10° SW
COSMOS 2455 3.6 05:41:19 29° W 05:42:52 33° WSW 05:48:08 10° S
Cosmos 1898 Rocket 4.2 05:42:42 30° W 05:43:31 32° WSW 05:48:08 10° SSW
Meteor 2-20 4.4 05:38:55 10° NNW 05:45:00 68° W 05:51:02 10° S
NOSS 2-1 (C) 4.4 05:44:49 26° WSW 05:45:01 26° SW 05:48:50 10° S
Orbus 7S? 2.7 05:47:32 46° NNW 05:48:05 59° NNE 05:50:45 10° ESE
Cosmos 405 Rocket 4.2 05:46:03 10° SSE 05:48:59 32° E 05:51:57 10° NNE
NOSS 3-4 (A) 4.4 05:49:57 22° NW 05:52:06 28° NNW 05:57:32 10° NE
NOSS 3-4 (C) 4.4 05:50:06 22° NW 05:52:16 28° NNW 05:57:42 10° NE
ATLAS 3B R/B 3.8 05:46:18 16° NW 05:52:20 42° NNE 05:59:33 10° E
Cosmos-2242 2.8 05:49:30 11° NNW 05:53:38 72° W 05:57:48 10° S
Cosmos 1980 Rocket 4.0 05:56:02 12° WSW 05:56:02 12° WSW 05:56:59 10° SW
Cosmos 2278 3.7 05:51:02 18° NW 05:55:12 63° WSW 06:00:46 10° SSE
COSMO-SKYMED 1 3.1 05:53:49 10° SSW 05:57:35 34° W 05:59:09 25° NW
Cosmos 2058 Rocket 3.1 05:56:23 10° NNW 06:00:46 57° W 06:05:05 10° S
Cosmos 1484 Rocket 2.3 05:57:24 10° N 06:00:50 75° WNW 06:04:13 10° SSW
Cosmos 1627 Rocket 4.4 05:57:19 10° SSW 06:03:23 64° WNW 06:09:30 10° N
Meteor 2-2 Rocket 4.2 05:58:24 10° NNW 06:04:00 63° W 06:09:41 10° S
Cosmos 1346 Rocket 4.3 06:07:59 17° NNW 06:07:59 17° NNW 06:09:16 10° NNW
Okean 1 3.0 06:03:39 14° NNW 06:06:32 56° W 06:10:01 10° S
Meteor 2-20 Rocket 4.3 06:01:29 10° NNW 06:07:12 63° W 06:12:49 10° S
Cosmos 1937 Rocket 4.4 06:06:02 21° WNW 06:08:02 27° W 06:12:16 10° SSW
Cosmos 220 Rocket 4.4 06:05:07 10° SW 06:08:53 36° WNW 06:12:43 10° N
SL-16 R/B 4.5 06:09:00 10° N 06:10:32 11° NNE 06:12:03 10° NE
ARIANE 5 R/B 3.7 06:07:51 10° NNE 06:12:53 46° E 06:17:54 10° S
Cosmos 2285 Rocket 4.0 06:06:48 10° NNW 06:13:13 85° WSW 06:19:37 10° SSE
SL-08 ROCKET BODY 4.5 06:10:58 10° S 06:16:48 80° E 06:22:40 10° NNE
IRIDIUM 104 4.3 06:13:26 10° S 06:18:40 83° W 06:23:55 10° N
Cosmos 2333 Rocket 2.5 06:15:59 13° NW 06:20:59 48° WSW 06:26:27 10° S
SAR-Lupe-4 4.4 06:19:42 10° NNE 06:23:13 53° ESE 06:26:41 10° S
SMAP 3.2 06:19:29 10° NNE 06:24:11 79° ESE 06:28:51 10° SSW
Cosmos 2360 Rocket 2.3 06:22:00 10° NW 06:27:34 60° WSW 06:33:04 10° SSE
IRIDIUM 114 4.3 06:22:37 10° SSW 06:27:49 70° W 06:33:03 10° N
Helios 1A Rocket 4.3 06:27:35 10° WSW 06:29:20 13° W 06:29:20 13° W
Landsat 7 4.0 06:25:27 10° NNE 06:30:09 74° ESE 06:34:47 10° S
NOSS 3-1 (A) 4.3 06:25:10 12° NW 06:31:39 55° SW 06:40:11 10° SSE
CBERS-1 4.0 06:27:48 10° N 06:32:51 62° WNW 06:37:51 10° SSW
Cosmos 2026 Rocket 4.3 06:27:25 10° SW 06:33:02 39° WNW 06:38:43 10° N
IGS 5A 3.7 06:29:53 10° N 06:33:42 43° WNW 06:37:30 10° SW
Cosmos 1814 Rocket 4.0 06:29:16 10° SSW 06:34:30 83° WNW 06:39:50 10° NNE
BREEZE-M DEB (TANK) 3.2 06:34:37 13° WSW 06:35:57 26° SSW 06:38:07 10° SE
Cosmos 2237 Rocket 3.9 06:31:34 10° NNW 06:36:10 25° NE 06:40:45 10° E
SeaSat 1 4.5 06:36:21 10° NNW 06:36:32 10° NNW 06:36:43 10° NNW
IRIDIUM 103 4.4 06:31:52 10° SSW 06:37:00 59° W 06:42:11 10° N
USA 234 3.5 06:32:03 10° E 06:38:32 66° NNE 06:45:02 10° WNW
SL-4 R/B 1.6 06:36:58 13° WNW 06:39:44 63° SSW 06:42:51 10° ESE
Cosmos 1758 Rocket 3.5 06:36:29 10° SSW 06:40:52 65° WNW 06:45:15 10° N
Cosmos 1733 2.2 06:40:00 10° SW 06:41:40 29° WNW 06:43:22 10° N
Cosmos 1743 2.1 06:38:41 10° SSW 06:41:56 76° WNW 06:45:11 10° N
IRS-1C 4.4 06:36:46 10° NNE 06:42:07 76° ESE 06:47:26 10° S
Thor Agena Rocket 3.5 06:40:18 10° NNE 06:45:22 69° WNW 06:50:21 10° SSW
BREEZE-M DEB (TANK) 3.3 06:42:59 10° W 06:45:49 79° S 06:53:45 10° E
Cosmos 2219 Rocket 2.2 06:40:47 10° NNW 06:46:27 70° WSW 06:52:02 10° SSE
Cosmos 192 4.3 06:41:51 10° NNW 06:46:48 79° WSW 06:51:41 10° SSE
ATLAS 5 CENTAUR R/B 3.2 06:46:03 10° NNW 06:47:20 12° N 06:48:41 10° NNE
Cosmos 2322 Rocket 2.8 06:44:09 10° NW 06:49:23 38° WSW 06:54:34 10° S
S3M 4.0 06:43:53 10° N 06:50:08 85° W 06:56:16 10° S
Cosmos 1553 Rocket 4.4 06:46:40 10° NNW 06:52:38 43° W 06:58:37 10° SSW
USA 229 4.3 06:47:51 10° NW 06:55:05 67° NE 07:03:06 10° ESE
USA 229 DEB 4.3 06:47:57 10° NW 06:55:10 67° NE 07:03:11 10° ESE
Cosmos 2322 4.1 06:49:37 10° NNW 06:55:16 65° ENE 07:00:54 10° SE
SJ-12 3.7 06:53:45 10° N 06:57:32 63° WNW 07:01:18 10° SSW
SKYMED 3 4.4 06:54:58 10° SSE 06:58:59 83° WSW 07:03:01 10° NNW
Resurs 01 Rocket 4.4 06:55:59 10° NE 06:59:21 21° E 07:02:41 10° SE
YAOGAN 1 3.9 06:56:21 10° NNE 07:00:28 45° E 07:04:33 10° S
BREEZE-M DEB (TANK) 4.5 06:58:12 10° W 07:01:36 36° S 07:10:17 10° SE
Cosmos 2221 2.8 06:57:43 10° NNW 07:01:42 45° W 07:05:38 10° SSW
Cosmos 1626 Rocket 4.2 07:01:01 10° SW 07:05:02 33° WNW 07:09:03 10° N
MOS 1 Rocket 3.6 07:00:04 10° N 07:05:26 72° WNW 07:10:44 10° SSW
Cosmos 2151 3.0 07:01:49 10° SSW 07:05:50 57° WNW 07:09:53 10° N
